Location: Aalen
(48.8330°N, 10.1000°E)
Time: 18:33:14
(UTC+02:00)

CAS-6 - Pass Details

Date: 05 April 2023
Orbit: 610 x 632 km, 97.9° (Epoch: 04 June)

Event Time Altitude Azimuth Distance (km) Brightness Sun altitude
Exits shadow 23:11:27 39° 14° (NNE) 944 ? -28.0°
Drops below altitude 10° 23:14:24 10° 354° (N) 2,015 ? -28.3°
Sets 23:16:38 0° 350° (N) 2,930 ? -28.5°
